Regional Weather Roundup
Issued by NWS Little Rock, AR

Home | Current Version | Previous Version | Graphics & Text | Print | Product List | Glossary On
Versions: 1 2 3 4 5 6 7 8 9 10 11 12 13 14 15 16 17 18 19 20 21 22 23 24 25 26 27 28 29 30 31 32 33 34 35 36 37 38 39 40 41 42 43 44 45 46 47 48 49 50
000
ASUS44 KLZK 180605
RWRLZK

WEATHER ROUNDUP FOR ARKANSAS
NATIONAL WEATHER SERVICE LITTLE ROCK AR
1200 AM CST SAT NOV 18 2017

NOTE: "FAIR" INDICATES FEW OR NO CLOUDS BELOW 12,000 FEET WITH NO
SIGNIFICANT WEATHER AND/OR OBSTRUCTIONS TO VISIBILITY.

ARZ001-003-010-029-180700-
NORTHWEST ARKANSAS

CITY           SKY/WX    TMP DP  RH WIND       PRES   REMARKS
FAYETTEVILLE   CLEAR     69  64  84 S20G28    29.58F
6HR MIN TEMP:  67; 6HR MAX TEMP:  69;

FORT SMITH     PTCLDY    75  64  68 SW13G22   29.60F
6HR MIN TEMP:  72; 6HR MAX TEMP:  75;

HARRISON       CLEAR     69  62  78 S12G30    29.59F
6HR MIN TEMP:  66; 6HR MAX TEMP:  70;

BENTONVILLE    CLOUDY    69  63  81 S20G28    29.57F
6HR MIN TEMP:  67; 6HR MAX TEMP:  69;

ROGERS         PTCLDY    69  63  81 S21G31    29.56F
6HR MIN TEMP:  67; 6HR MAX TEMP:  69;

SILOAM SPGS    PTCLDY    68  63  84 S21G28    29.57F
6HR MIN TEMP:  67; 6HR MAX TEMP:  69;

HIGHFILL       CLOUDY    68  63  84 S21G28    29.57F
6HR MIN TEMP:  67; 6HR MAX TEMP:  69;

$$

ARZ004-005-016-180700-
NORTH CENTRAL ARKANSAS

CITY           SKY/WX    TMP DP  RH WIND       PRES   REMARKS
BATESVILLE     PTCLDY    69  63  81 S14G25    29.65F
6HR MIN TEMP:  69; 6HR MAX TEMP:  70;

FLIPPIN        PTCLDY    70  63  78 MISG      29.59F
6HR MIN TEMP:  66; 6HR MAX TEMP:  71;

$$

ARZ040-041-180700-
WEST CENTRAL ARKANSAS

CITY           SKY/WX    TMP DP  RH WIND       PRES   REMARKS
MENA           PTCLDY    72  70  94 SW8G25    29.70F
MOUNT IDA      CLOUDY    74  65  73 MISG      29.69F
6HR MIN TEMP:  72; 6HR MAX TEMP:  74;

$$

ARZ009-017-025-026-028-180700-
NORTHEAST ARKANSAS

CITY           SKY/WX    TMP DP  RH WIND       PRES   REMARKS
CORNING        CLOUDY    68  61  77 S22G29    29.65F
JONESBORO      MOCLDY    69  59  70 S20G30    29.69F
6HR MIN TEMP:  67; 6HR MAX TEMP:  70;

NEWPORT        CLOUDY    69  61  75 S24       29.68F
6HR MIN TEMP:  66; 6HR MAX TEMP:  70;

WALNUT RIDGE   PTCLDY    65  59  81 S17       29.65F
6HR MIN TEMP:  65; 6HR MAX TEMP:  68;

BLYTHEVILLE    CLOUDY    68  57  68 S18G29    29.72F
6HR MIN TEMP:  66; 6HR MAX TEMP:  69;

$$

ARZ022-023-033-042-044-180700-
CENTRAL ARKANSAS

CITY           SKY/WX    TMP DP  RH WIND       PRES   REMARKS
LITTLE ROCK    MOCLDY    70  65  84 S17G24    29.72S
6HR MIN TEMP:  69; 6HR MAX TEMP:  70;

N LITTLE ROCK    N/A     69  65  85 SW10      29.73F
6HR MIN TEMP:  69; 6HR MAX TEMP:  70;

JACKSONVILLE   CLOUDY    71  65  82 S15G21    29.72S
6HR MIN TEMP:  70; 6HR MAX TEMP:  71;

SEARCY         CLOUDY    71  67  87 S13       29.72F
6HR MIN TEMP:  70; 6HR MAX TEMP:  71;

HOT SPRINGS    CLOUDY    72  67  84 SW6       29.74S
6HR MIN TEMP:  71; 6HR MAX TEMP:  73;

RUSSELLVILLE   CLOUDY    70  65  84 S7        29.65F
6HR MIN TEMP:  67; 6HR MAX TEMP:  72;

CLINTON        CLOUDY    70  64  83 S7G14     29.67F
$$

ARZ036-180700-
EAST ARKANSAS

CITY           SKY/WX    TMP DP  RH WIND       PRES   REMARKS
WEST MEMPHIS   MOCLDY    68  58  70 S24G35    29.75F
6HR MIN TEMP:  67; 6HR MAX TEMP:  69;

$$

ARZ050-053-066-070-073-180700-
SOUTHWEST ARKANSAS

CITY           SKY/WX    TMP DP  RH WIND       PRES   REMARKS
ARKADELPHIA    CLOUDY    71  66  84 S10G20    29.74F
6HR MIN TEMP:  69; 6HR MAX TEMP:  72;

CAMDEN         CLOUDY    72  63  73 S10       29.77F
TEXARKANA      CLEAR     69  65  86 S17G23    29.74F
6HR MIN TEMP:  69; 6HR MAX TEMP:  73;

EL DORADO      CLOUDY    71  67  87 S14G23    29.79F
6HR MIN TEMP:  68; 6HR MAX TEMP:  71;

DE QUEEN       CLEAR     66  65  96 CALM      29.70F
6HR MIN TEMP:  65; 6HR MAX TEMP:  74;

$$

ARZ056-057-069-180700-
SOUTHEAST ARKANSAS

CITY           SKY/WX    TMP DP  RH WIND       PRES   REMARKS
PINE BLUFF     CLOUDY    70  63  78 S17       29.76F
6HR MIN TEMP:  70; 6HR MAX TEMP:  72;

STUTTGART      CLOUDY    71  64  78 S22G30    29.75F
6HR MIN TEMP:  70; 6HR MAX TEMP:  72;

MONTICELLO     CLOUDY    71  63  75 S14       29.80F
6HR MIN TEMP:  70; 6HR MAX TEMP:  72;


$$





USA.gov is the U.S. government's official web portal to all federal, state and local government web resources and services.